Frankfort, MI

1:17 AM EDT on March 26, 2017 (GMT -0400)
Frankfort

Weather History for KFKS - May, 2013

Change the Weather History Date:

Thursday, May 23, 2013

  Actual Average (KMBL) Record (KMBL)
Temperature  
Mean Temperature 46 °F -  
Max Temperature 51 °F 70 °F 86 °F (1977)
Min Temperature 40 °F 46 °F 29 °F (1963)
Degree Days  
Heating Degree Days 20    
Moisture  
Dew Point 38 °F    
Average Humidity 78    
Maximum Humidity 94    
Minimum Humidity 57    
Precipitation  
Precipitation 0.00 in - - ()
Sea Level Pressure  
Sea Level Pressure 30.03 in    
Wind  
Wind Speed 10 mph (North)    
Max Wind Speed 18 mph    
Max Gust Speed 31 mph    
Visibility 10 miles    
Events Rain    
Averages and records for this station are not official NWS values.
T = Trace of Precipitation, MM = Missing Value Source: NWS Daily Summary

Daily Weather History Graph

Daily Weather History Graph

Search for Another Location

Airport or City:

Trip Planner

Search our weather history database for the weather conditions in past years. The results will help you decide how hot, cold, wet, or windy it might be!

Date:

Astronomy

May. 23, 2013 Rise Set
Actual Time 6:08 AM EDT 9:14 PM EDT
Civil Twilight 5:33 AM EDT 9:50 PM EDT
Nautical Twilight 4:48 AM EDT 10:35 PM EDT
Astronomical Twilight 3:54 AM EDT 11:29 PM EDT
Moon 7:43 PM EDT (5/23) 4:57 AM EDT (5/23)
Length of Visible Light 16h 16m
Length of Day
15h 06m
Waxing Gibbous, 97% of the Moon is Illuminated
May 23
Waxing Gibbous
May 25
Full
May 31
Last Quarter
Jun 8
New
Jun 16
First Quarter

Hourly Weather History & Observations

Time (EDT) Temp. Windchill Dew Point Humidity Pressure Visibility Wind Dir Wind Speed Gust Speed Precip Events Conditions
12:14 AM 50.0 °F - 48.2 °F 94% 29.74 in 10.0 mi NNE 6.9 mph - N/A   Overcast
12:34 AM 50.4 °F - 48.4 °F 93% 29.76 in 10.0 mi North 4.6 mph - N/A Rain Light Rain
12:54 AM 50.9 °F - 48.7 °F 92% 29.76 in 10.0 mi North 5.8 mph - N/A   Light Drizzle
1:09 AM 51.1 °F - 49.1 °F 93% 29.77 in 7.0 mi North 6.9 mph - N/A   Light Drizzle
1:33 AM 50.9 °F - 48.6 °F 92% 29.77 in 7.0 mi North 8.1 mph 16.1 mph N/A Rain Light Rain
1:53 AM 50.5 °F - 48.4 °F 92% 29.77 in 7.0 mi NNE 8.1 mph - N/A Rain Light Rain
2:13 AM 50.5 °F - 48.4 °F 92% 29.77 in 7.0 mi NNE 9.2 mph - N/A   Light Drizzle
2:34 AM 50.0 °F - 47.7 °F 92% 29.77 in 7.0 mi North 5.8 mph 18.4 mph N/A   Drizzle
2:54 AM 49.1 °F - 46.6 °F 91% 29.78 in 7.0 mi NNE 10.4 mph 20.7 mph N/A Rain Light Rain
3:16 AM 48.6 °F - 46.4 °F 92% 29.79 in 7.0 mi NNE 11.5 mph 18.4 mph N/A Rain Rain
3:36 AM 48.2 °F - 45.9 °F 92% 29.79 in 10.0 mi NNE 10.4 mph 20.7 mph N/A Rain Light Rain
3:56 AM 48.0 °F - 45.5 °F 91% 29.80 in 10.0 mi North 10.4 mph 19.6 mph N/A Rain Light Rain
4:16 AM 47.7 °F - 45.1 °F 91% 29.80 in 10.0 mi North 9.2 mph 21.9 mph N/A Rain Light Rain
4:36 AM 47.3 °F - 44.8 °F 91% 29.81 in 10.0 mi North 9.2 mph 19.6 mph N/A   Light Drizzle
4:56 AM 46.2 °F 41.7 °F 43.7 °F 91% 29.83 in 10.0 mi North 9.2 mph - N/A Rain Light Rain
5:17 AM 45.5 °F 40.8 °F 43.2 °F 92% 29.83 in 10.0 mi North 9.2 mph 20.7 mph N/A Rain Light Rain
5:37 AM 45.0 °F 39.3 °F 42.8 °F 92% 29.84 in 10.0 mi North 11.5 mph 21.9 mph N/A   Light Drizzle
5:54 AM 45.0 °F 40.1 °F 42.8 °F 92% 29.85 in 10.0 mi North 9.2 mph 21.9 mph N/A   Overcast
6:14 AM 44.6 °F 39.7 °F 42.3 °F 91% 29.87 in 10.0 mi North 9.2 mph 21.9 mph N/A   Light Drizzle
6:34 AM 43.9 °F 37.2 °F 41.7 °F 92% 29.88 in 10.0 mi North 13.8 mph 20.7 mph N/A Rain Light Rain
6:54 AM 43.2 °F 37.9 °F 41.0 °F 92% 29.89 in 10.0 mi North 9.2 mph 19.6 mph N/A Rain Light Rain
7:14 AM 42.6 °F 35.9 °F 40.3 °F 91% 29.90 in 10.0 mi North 12.7 mph 19.6 mph N/A Rain Light Rain
7:34 AM 42.4 °F 35.7 °F 40.1 °F 91% 29.91 in 10.0 mi North 12.7 mph 19.6 mph N/A Rain Light Rain
7:55 AM 42.1 °F 35.7 °F 39.7 °F 91% 29.93 in 7.0 mi North 11.5 mph 18.4 mph N/A Rain Light Rain
8:15 AM 41.9 °F 35.4 °F 39.6 °F 91% 29.94 in 7.0 mi North 11.5 mph 20.7 mph N/A Rain Light Rain
8:35 AM 41.4 °F 35.2 °F 39.2 °F 92% 29.96 in 10.0 mi North 10.4 mph 23.0 mph N/A Rain Light Rain
8:55 AM 41.2 °F 34.5 °F 39.0 °F 92% 29.97 in 10.0 mi North 11.5 mph 19.6 mph N/A Rain Light Rain
9:15 AM 41.0 °F 33.5 °F 38.7 °F 91% 29.98 in 10.0 mi North 13.8 mph 24.2 mph N/A Rain Light Rain
9:35 AM 41.0 °F 35.2 °F 38.3 °F 90% 30.00 in 10.0 mi North 9.2 mph 18.4 mph N/A Rain Light Rain
9:55 AM 40.8 °F 34.1 °F 38.3 °F 91% 30.01 in 10.0 mi North 11.5 mph 19.6 mph N/A Rain Rain
10:15 AM 40.5 °F 34.1 °F 37.8 °F 90% 30.03 in 10.0 mi North 10.4 mph 25.3 mph N/A Rain Light Rain
10:35 AM 40.6 °F 36.7 °F 37.8 °F 89% 30.04 in 10.0 mi NNE 5.8 mph 19.6 mph N/A Rain Light Rain
10:56 AM 40.6 °F 34.3 °F 37.4 °F 88% 30.05 in 10.0 mi North 10.4 mph 20.7 mph N/A Rain Light Rain
11:16 AM 40.3 °F 34.4 °F 36.7 °F 87% 30.06 in 10.0 mi North 9.2 mph 20.7 mph N/A   Overcast
11:36 AM 40.1 °F 33.2 °F 36.0 °F 85% 30.07 in 10.0 mi North 11.5 mph 21.9 mph N/A   Overcast
11:56 AM 40.3 °F 33.0 °F 34.5 °F 80% 30.08 in 10.0 mi North 12.7 mph 25.3 mph N/A   Overcast
12:16 PM 41.4 °F 34.0 °F 34.9 °F 78% 30.09 in 10.0 mi North 13.8 mph 21.9 mph N/A   Overcast
12:36 PM 41.9 °F 34.6 °F 34.9 °F 76% 30.10 in 10.0 mi North 13.8 mph 25.3 mph N/A   Overcast
12:56 PM 42.3 °F 35.5 °F 34.9 °F 75% 30.10 in 10.0 mi North 12.7 mph 25.3 mph N/A   Overcast
1:16 PM 42.6 °F 34.9 °F 33.8 °F 71% 30.11 in 10.0 mi North 16.1 mph 24.2 mph N/A   Overcast
1:37 PM 43.2 °F 35.6 °F 32.9 °F 67% 30.11 in 10.0 mi North 16.1 mph 28.8 mph N/A   Overcast
1:57 PM 45.3 °F 38.7 °F 34.0 °F 65% 30.11 in 10.0 mi North 15.0 mph 27.6 mph N/A   Overcast
2:17 PM 45.5 °F 38.9 °F 34.7 °F 66% 30.12 in 10.0 mi North 15.0 mph 26.5 mph N/A   Mostly Cloudy
2:32 PM 45.9 °F 39.1 °F 34.0 °F 63% 30.12 in 10.0 mi North 16.1 mph 27.6 mph N/A   Scattered Clouds
2:52 PM 46.0 °F 40.2 °F 33.8 °F 62% 30.12 in 10.0 mi North 12.7 mph 25.3 mph N/A   Clear
3:12 PM 46.0 °F 38.8 °F 32.5 °F 59% 30.13 in 10.0 mi North 18.4 mph 31.1 mph N/A   Clear
3:32 PM 46.2 °F 40.8 °F 33.4 °F 61% 30.14 in 10.0 mi North 11.5 mph 28.8 mph N/A   Clear
3:52 PM 46.2 °F 39.3 °F 34.0 °F 62% 30.15 in 10.0 mi North 17.3 mph 26.5 mph N/A   Clear
4:12 PM 46.4 °F 39.5 °F 33.4 °F 61% 30.15 in 10.0 mi North 17.3 mph 28.8 mph N/A   Clear
4:32 PM 46.4 °F 39.5 °F 32.7 °F 59% 30.15 in 10.0 mi North 17.3 mph 25.3 mph N/A   Clear
4:53 PM 46.6 °F - 32.9 °F 59% 30.16 in 10.0 mi North 17.3 mph 25.3 mph N/A   Clear
5:13 PM 47.1 °F - 33.1 °F 58% 30.16 in 10.0 mi North 13.8 mph 28.8 mph N/A   Clear
5:33 PM 46.8 °F - 32.4 °F 57% 30.16 in 10.0 mi North 16.1 mph 23.0 mph N/A   Clear
5:53 PM 46.4 °F 41.5 °F 33.3 °F 60% 30.18 in 10.0 mi North 10.4 mph 23.0 mph N/A   Clear
6:13 PM 45.5 °F 40.3 °F 33.1 °F 62% 30.19 in 10.0 mi North 10.4 mph 26.5 mph N/A   Clear
6:33 PM 45.0 °F 38.2 °F 32.9 °F 63% 30.19 in 10.0 mi North 15.0 mph 26.5 mph N/A   Clear
6:53 PM 45.0 °F 38.5 °F 33.1 °F 63% 30.20 in 10.0 mi North 13.8 mph 21.9 mph N/A   Clear
7:13 PM 44.8 °F 39.4 °F 32.7 °F 63% 30.20 in 10.0 mi North 10.4 mph 20.7 mph N/A   Clear
7:33 PM 44.6 °F 38.4 °F 32.4 °F 62% 30.21 in 10.0 mi North 12.7 mph 19.6 mph N/A   Clear
7:54 PM 44.1 °F 38.6 °F 32.2 °F 63% 30.22 in 10.0 mi North 10.4 mph 20.7 mph N/A   Clear
8:14 PM 43.7 °F 37.3 °F 32.0 °F 63% 30.22 in 10.0 mi North 12.7 mph 19.6 mph N/A   Clear
8:34 PM 43.2 °F 37.4 °F 32.0 °F 65% 30.23 in 10.0 mi North 10.4 mph 18.4 mph N/A   Clear
8:54 PM 42.6 °F 36.3 °F 32.0 °F 66% 30.23 in 10.0 mi North 11.5 mph 16.1 mph N/A   Clear
9:14 PM 41.9 °F 35.9 °F 32.4 °F 69% 30.23 in 10.0 mi North 10.4 mph 19.6 mph N/A   Clear
9:34 PM 41.9 °F 36.3 °F 32.0 °F 68% 30.24 in 10.0 mi North 9.2 mph 20.7 mph N/A   Clear
9:54 PM 41.9 °F 35.4 °F 32.0 °F 68% 30.25 in 10.0 mi North 11.5 mph 18.4 mph N/A   Clear
10:14 PM 41.4 °F 34.7 °F 32.0 °F 69% 30.26 in 10.0 mi North 11.5 mph 18.4 mph N/A   Clear
10:34 PM 41.2 °F 34.5 °F 32.0 °F 70% 30.26 in 10.0 mi North 11.5 mph 19.6 mph N/A   Clear
10:55 PM 41.2 °F 36.6 °F 32.0 °F 70% 30.27 in 10.0 mi North 6.9 mph - N/A   Clear
11:15 PM 41.0 °F 37.1 °F 32.4 °F 71% 30.27 in 10.0 mi North 5.8 mph - N/A   Clear
11:35 PM 40.6 °F 36.7 °F 32.7 °F 73% 30.27 in 10.0 mi North 5.8 mph - N/A   Clear
11:55 PM 40.8 °F 35.6 °F 32.5 °F 72% 30.27 in 10.0 mi North 8.1 mph 16.1 mph N/A   Clear